Location: Spruce Knob
(38.6995°N, 79.5330°W)
Time: 18:06:09
(UTC-05:00)

SR - Visible Passes

Search period start: 22 January 2022 00:00
Search period end: 01 February 2022 00:00
Orbit: 582 x 872 km, 66.7° (Epoch: 22 January)

Date Brightness Start Highest point End Pass type
(mag) Time Alt. Az. Time Alt. Az. Time Alt. Az.
22 Jan ? 19:34:40 10° N 19:35:20 13° N 19:35:20 13° N visible
23 Jan ? 18:45:47 10° NNE 18:47:26 14° NNE 18:47:26 14° NNE visible
23 Jan ? 20:26:12 10° NNW 20:26:53 14° NNW 20:26:53 14° NNW visible
24 Jan ? 19:36:25 10° NNW 19:39:13 34° N 19:39:13 34° N visible
25 Jan ? 18:47:00 10° N 18:51:01 27° NE 18:51:50 25° ENE visible
25 Jan ? 20:28:39 10° NW 20:31:20 28° WNW 20:31:20 28° WNW visible
26 Jan ? 17:58:13 10° NNE 18:00:47 14° NE 18:03:26 10° E visible
26 Jan ? 19:38:27 10° NNW 19:43:15 79° WSW 19:44:28 52° SSE visible
27 Jan ? 18:48:42 10° NNW 18:53:20 49° ENE 18:58:22 10° SE visible
27 Jan ? 20:31:39 10° WNW 20:35:04 19° WSW 20:38:08 12° SSW visible
28 Jan ? 17:59:20 10° N 18:03:17 25° NE 18:07:28 10° ESE visible
28 Jan ? 19:40:51 10° NW 19:45:22 40° WSW 19:50:15 10° S visible
29 Jan ? 18:50:43 10° NNW 18:55:33 85° WSW 19:00:49 10° SSE visible
30 Jan ? 18:00:59 10° NNW 18:05:37 46° ENE 18:10:37 10° SE visible
30 Jan ? 19:43:45 10° WNW 19:47:23 21° WSW 19:51:12 10° SSW visible
31 Jan ? 18:53:03 10° NW 18:57:40 43° WSW 19:02:39 10° S visible
